{"data":{"norad_id":39079,"epoch":"2026-05-25T03:57:46.000800Z","epoch_age_seconds":57195,"freshness":"FRESH","line1":"1 39079U 13006B   26145.16511575  .00000131  00000+0  00000+0 0  9990","line2":"2 39079   0.0277  65.3803 0001167  18.5708 264.2313  1.00272503 48570","mean_motion":1.00272503,"eccentricity":0.0001167,"inclination_deg":0.0277,"raan_deg":65.3803,"arg_perigee_deg":18.5708,"mean_anomaly_deg":264.2313,"bstar":0,"rev_number":4857,"period_min":1436.0866208755,"perigee_km":35781.473080197,"apogee_km":35791.314281658,"semimajor_km":42164.530680928,"source":"CELESTRAK","updated_at":"2026-05-25T13:38:13.941273Z"}}